Regional Weather Roundup
Issued by NWS

Home | Current Version | Previous Version | Text Only | Print | Product List | Glossary On
Versions: 1 2 3 4 5 6 7 8 9 10 11 12 13 14 15 16 17 18 19 20 21 22 23 24 25 26 27 28 29 30 31 32 33 34 35 36 37 38 39 40 41 42 43 44 45 46 47 48 49 50
000
ASUS43 KMKX 251725
RWRWI

WISCONSIN REGIONAL WEATHER ROUNDUP
NATIONAL WEATHER SERVICE MILWAUKEE/SULLIVAN WI
1200 PM CDT SAT OCT 25 2014

NOTE: "FAIR" INDICATES FEW OR NO CLOUDS BELOW 12,000 FEET WITH NO
SIGNIFICANT WEATHER AND/OR OBSTRUCTIONS TO VISIBILITY.

WIZ001-002-006>008-014>016-023>028-251800-
NORTHWEST WISCONSIN

CITY           SKY/WX    TMP DP  RH WIND       PRES   REMARKS
SUPERIOR ARPT  SUNNY     57  32  39 W18G24    29.93F
ASHLAND        SUNNY     56  32  40 W20G30    29.90F
HAYWARD        SUNNY     55  31  39 W12G18    29.94F
SIREN          SUNNY     57  30  35 W16G23    29.98F
CUMBERLAND     SUNNY     54  30  40 NW14G22   29.99R
RICE LAKE      SUNNY     56  31  39 NW15G23   30.00R
CHETEK         SUNNY     56  33  42 W12G20    29.98R
LADYSMITH      SUNNY     56  32  39 NW16G24   29.96S
EAU CLAIRE     SUNNY     59  31  34 W17G24    29.99R
MENOMONIE      SUNNY     58  30  33 NW18G25   30.00S
NEW RICHMOND   SUNNY     58  29  33 NW15G26   30.03R
OSCEOLA        SUNNY     57  32  38 NW16G22   30.05S
$$

WIZ003>005-009-010-017-018-251800-
NORTH CENTRAL WISCONSIN

CITY           SKY/WX    TMP DP  RH WIND       PRES   REMARKS
MANITOWISH WTR SUNNY     54  32  43 NW18G25   29.87R
ARBOR VITAE    SUNNY     57  32  39 NW15G24   29.87R
WOODRUFF       SUNNY     57  32  39 NW15G24   29.87R
RHINELANDER    SUNNY     55  29  36 NW12G26   29.87R
EAGLE RIVER    SUNNY     55  26  33 NW22G31   29.84S
LAND O LAKES   SUNNY     55  26  33 NW12G28   29.83S
PHILLIPS       SUNNY     54  31  42 NW9G20    29.91R
TOMAHAWK       SUNNY     56  29  35 W16G24    29.89S
MEDFORD        SUNNY     56  31  39 NW16      29.91F
MERRILL        SUNNY     59  31  34 NW18G28   29.88S
$$

WIZ029-030-035-036-043>047-251800-
CENTRAL WISCONSIN

CITY           SKY/WX    TMP DP  RH WIND       PRES   REMARKS
WAUSAU         SUNNY     59  29  31 NW17G26   29.88S
MOSINEE        SUNNY     57  34  41 W21       29.91R
MARSHFIELD     SUNNY     59  36  42 NW21      29.92F
STEVENS POINT  SUNNY     57  30  36 NW14G28   29.90F
WAUPACA        SUNNY     63  30  29 W16G24    29.89S
WAUTOMA        CLOUDY    62  33  33 W15G30    29.91F
WISC RAPIDS    SUNNY     60  31  33 NW17G25   29.94S
CAMP DOUGLAS   MOSUNNY   63  32  31 NW12G24   29.96F
$$

WIZ011>013-019>022-031-037>040-048>050-251800-
NORTHEAST WISCONSIN

CITY           SKY/WX    TMP DP  RH WIND       PRES   REMARKS
ANTIGO         SUNNY     56  33  41 NW21      29.86S
SHAWANO        SUNNY     62  31  31 NW20G26   29.84S
OCONTO         SUNNY     62  32  33 NW17G24   29.79F
STURGEON BAY   SUNNY     61  36  39 W13G23    29.80S
GREEN BAY      SUNNY     62  34  35 W21G32    29.83F
MANITOWOC      SUNNY     62  37  39 W16G26    29.83F
APPLETON       SUNNY     61  32  33 NW18G25   29.87F
CLINTONVILLE   SUNNY     61  32  33 NW18G28   29.85S
OSHKOSH        SUNNY     61  34  36 W17G26    29.88S
$$

WIZ032>034-041-042-053>061-251800-
SOUTHWEST WISCONSIN

CITY           SKY/WX    TMP DP  RH WIND       PRES   REMARKS
LA CROSSE      SUNNY     63  35  35 NW10      30.01R
SPARTA         SUNNY     63  28  27 NW14G21   29.99R
VIROQUA        SUNNY     62  34  34 W9G17     30.01S
BOSCOBEL       SUNNY     66  35  31 NW9G21    30.02S
PRAIRIE DU CHI SUNNY     64  33  30 NW12G17   30.03S
PLATTEVILLE    SUNNY     64  35  34 NW13      30.03S
$$

WIZ056-057-062-063-064-067-068-251800-
SOUTH CENTRAL WISCONSIN

CITY           SKY/WX    TMP DP  RH WIND       PRES   REMARKS
REEDSBURG      SUNNY     63  32  32 NW15      29.96F
BARABOO/DELLS  SUNNY     63  29  27 W12G21    29.95F
LONE ROCK      SUNNY     68  35  29 W15G22    29.98F
MINERAL POINT  SUNNY     66  32  28 W10       30.01S
MADISON        MOSUNNY   65  34  31 NW7       29.96S
MIDDLETON      SUNNY     66  31  26 W13G20    29.97F
WATERTOWN      SUNNY     64  37  35 NW16G23   29.92F
MONROE         SUNNY     63  37  39 W17       29.99S
JANESVILLE     SUNNY     66  39  37 NW14G20   29.97R
$$

WIZ051-052-058>065-066-070>072-251800-
SOUTHEAST WISCONSIN

CITY           SKY/WX    TMP DP  RH WIND       PRES   REMARKS
MILWAUKEE      MOSUNNY   65  38  36 W16G23    29.91F
WAUKESHA       SUNNY     61  36  39 W14       29.94S
MILWAUKEE/TIMM SUNNY     64  32  29 NW17G23   29.91F
RACINE         SUNNY     66  39  37 W9G23     29.93F
BURLINGTON     SUNNY     65  38  37 W17       29.94S
KENOSHA        SUNNY     67  42  40 W18       29.94S
FOND DU LAC    SUNNY     63  34  33 W22G30    29.89F
SHEBOYGAN      SUNNY     62  36  37 NW21G32   29.86F
WEST BEND      SUNNY     63  32  31 W16G29    29.89S
JUNEAU         SUNNY     62  34  35 W13G22    29.93S
$$

LSZ147-162-251800-
LAKE SUPERIOR

STATION/POSITION TIME  TEMP    WIND        PRES    WAVE
                       AIR SEA DIR/SP/G            HT/PER
                 (UTC) (F)     (DEG/KT/KT) (MB)    (FT/S)
W MID LAKE BUOY  1650   49 46  240/ 21/ 25 1008.4R
DEVILS ISLAND    1700   50     260/ 21/ 24 1011.0F
PORT WING        1640   52     260/ 14/ 19 1012.9F
SAXON HARBOR     1600   53     310/ 16/ 23 1012.2S
$$

LMZ867-665-643>646-251800-
LAKE MICHIGAN

STATION/POSITION TIME  TEMP    WIND        PRES    WAVE
                       AIR SEA DIR/SP/G            HT/PER
                 (UTC) (F)     (DEG/KT/KT) (MB)    (FT/S)
CHAMBERS ISLAND  1600   61     290/  3/ 11 1008.5R
N MID LAKE BUOY  1650   54 51  280/ 14/ 17 1006.8F   3/ 4
NORTHPORT PIER   1600   58     300/  9/ 15 1007.5F
SISTER BAY       1613          300/ 17/ 19   N/A
ALGOMA LAKESHORE 1556          310/ 13/ 23   N/A
KEWAUNEE LAKESHO 1700   60     290/ 13/ 23 1008.6F
SHEBOYGAN LAKESH 1700   62 51  290/ 19/ 22 1011.1F
PORT WASHINGTON  1640   65     270/ 13/ 17 1012.2F
ATWATER BUOY     1700   61     280/ 16/ 21 1013.4F
MILWAUKEE LAKESH 1700   63     300/ 16/ 23   N/A
S MID LAKE BUOY  1650   56 54  280/ 14/ 14 1012.9R   2/ 4
KENOSHA   LAKESH 1700   65     280/ 15/ 21 1012.9F
$$

TC  - TEMPERATURE IN CELSIUS
VSB - VISIBILITY IN STATUTE MILES
WCI - WIND CHILL INDEX
HX  - HEAT INDEX




USA.gov is the U.S. government's official web portal to all federal, state and local government web resources and services.